Date String (YYYY-MM-DD hh:mm:ss) UTC,Instrument flags,Ambient pressure (hPa),Sample flow (lpm),Bypass flow (lpm),Sample temperature (°C),Ambient temperature (°C),ASC tube jacket temperature (°C),LED temperature (°C),Box temperature (°C),Sample RH (%),Span deviation,Mass concentration (μg/m³),Mass concentration (μg/m³),Mass concentration (μg/m³)
DateTimeUTC,F1_M11,P_M11,Q1_M11,Q2_M11,T1_M11,T2_M11,T3_M11,T4_M11,T5_M11,U1_M11,ZSPAN_M11,X0_M11,X2_M11,X1_M11
2022-05-12 11:00:00,,0819.6,5.00,0.00,28.8,28.0,00.0,37.8,30.6,26.5,-001.5,0028.14,0011.01,0007.55
2022-05-12 11:01:00,,0819.5,5.00,0.00,28.8,28.0,00.0,37.8,30.6,26.5,-001.6,0027.44,0011.06,0007.56
2022-05-12 11:02:00,,0819.5,5.00,0.00,28.8,28.0,00.0,37.8,30.6,26.6,-001.6,0027.86,0011.12,0007.58
2022-05-12 11:03:00,,0819.5,5.00,0.00,28.7,27.9,00.0,37.8,30.5,26.6,-001.9,0028.49,0011.22,0007.59
2022-05-12 11:04:00,,0819.4,5.00,0.00,28.7,28.0,00.0,37.8,30.5,26.7,-001.9,0028.30,0011.24,0007.59
2022-05-12 11:05:00,,0819.5,4.99,0.00,28.7,27.9,00.0,37.8,30.5,26.7,-002.2,0029.20,0011.26,0007.59
2022-05-12 11:06:00,,0819.5,5.00,0.00,28.7,27.9,00.0,37.7,30.5,26.7,-002.3,0028.69,0011.24,0007.59
2022-05-12 11:07:00,,0819.5,5.01,0.00,28.7,27.9,00.0,37.7,30.5,26.7,-002.5,0029.53,0011.28,0007.58
2022-05-12 11:08:00,,0819.6,5.00,0.00,28.7,27.9,00.0,37.7,30.5,26.7,-002.3,0030.05,0011.39,0007.54
2022-05-12 11:09:00,,0819.5,4.99,0.00,28.7,27.9,00.0,37.7,30.4,26.8,-002.1,0030.10,0011.46,0007.54
2022-05-12 11:10:00,,0819.4,5.00,0.00,28.7,27.9,00.0,37.7,30.4,26.8,-001.9,0030.21,0011.43,0007.55
2022-05-12 11:11:00,,0819.4,5.01,0.00,28.7,27.8,00.0,37.7,30.4,26.9,-001.6,0031.48,0011.36,0007.56
2022-05-12 11:12:00,,0819.4,5.00,0.00,28.7,27.8,00.0,37.7,30.4,27.0,-001.7,0032.60,0011.34,0007.58
2022-05-12 11:13:00,,0819.4,4.99,0.00,28.6,27.8,00.0,37.7,30.4,27.1,-001.6,0032.72,0011.37,0007.57
2022-05-12 11:14:00,,0819.4,5.00,0.00,28.6,27.8,00.0,37.7,30.4,27.3,-001.6,0031.56,0011.34,0007.59
2022-05-12 11:15:00,,0819.3,5.01,0.00,28.6,27.8,00.0,37.7,30.4,28.3,-001.8,0031.59,0011.40,0007.61
2022-05-12 11:16:00,,0819.2,5.00,0.00,28.6,27.8,00.0,37.7,30.4,28.0,-001.8,0030.78,0011.33,0007.61
2022-05-12 11:17:00,,0819.3,4.99,0.00,28.6,27.8,00.0,37.7,30.4,27.6,-002.0,0030.62,0011.31,0007.62
2022-05-12 11:18:00,,0819.3,5.00,0.00,28.6,27.8,00.0,37.7,30.3,27.6,-002.0,0029.81,0011.18,0007.63
2022-05-12 11:19:00,,0819.3,5.00,0.00,28.6,27.7,00.0,37.6,30.3,27.6,-002.1,0029.22,0011.08,0007.66
2022-05-12 11:20:00,,0819.4,5.00,0.00,28.6,27.7,00.0,37.6,30.3,27.6,-002.2,0029.43,0011.04,0007.69
2022-05-12 11:21:00,,0819.3,5.00,0.00,28.5,27.7,00.0,37.6,30.3,27.6,-002.1,0028.42,0011.07,0007.70
2022-05-12 11:22:00,,0819.2,5.01,0.00,28.5,27.7,00.0,37.6,30.3,27.5,-001.8,0027.78,0011.06,0007.72
2022-05-12 11:23:00,,0819.2,5.01,0.00,28.5,27.6,00.0,37.6,30.2,27.5,-001.6,0026.59,0011.04,0007.74
2022-05-12 11:24:00,,0819.2,4.99,0.00,28.5,27.7,00.0,37.6,30.2,27.5,-001.6,0026.66,0011.09,0007.80
2022-05-12 11:25:00,,0819.2,5.01,0.00,28.5,27.6,00.0,37.6,30.2,27.6,-001.9,0027.18,0011.09,0007.83
2022-05-12 11:26:00,,0819.3,5.01,0.00,28.5,27.6,00.0,37.6,30.2,27.6,-001.8,0028.22,0011.06,0007.85
2022-05-12 11:27:00,,0819.2,4.99,0.00,28.4,27.6,00.0,37.6,30.2,27.7,-001.6,0028.92,0011.22,0007.88
2022-05-12 11:28:00,,0819.3,5.00,0.00,28.4,27.6,00.0,37.5,30.2,27.7,-001.6,0030.40,0011.26,0007.91
2022-05-12 11:29:00,,0819.2,5.00,0.00,28.4,27.6,00.0,37.5,30.1,27.8,-001.8,0032.75,0011.41,0007.95
2022-05-12 11:30:00,,0819.2,5.00,0.00,28.4,27.5,00.0,37.5,30.1,27.8,-001.6,0032.65,0011.49,0007.99
2022-05-12 11:31:00,,0819.2,5.00,0.00,28.4,27.5,00.0,37.5,30.1,27.8,-001.4,0033.04,0011.60,0008.02
2022-05-12 11:32:00,,0819.2,5.00,0.00,28.4,27.5,00.0,37.5,30.1,27.9,-001.3,0033.95,0011.64,0008.07
2022-05-12 11:33:00,,0819.3,5.00,0.00,28.3,27.4,00.0,37.5,30.1,27.9,-001.8,0033.94,0011.67,0008.11
2022-05-12 11:34:00,,0819.3,4.99,0.00,28.3,27.4,00.0,37.5,30.1,27.7,-002.0,0035.67,0011.83,0008.15
2022-05-12 11:35:00,,0819.3,5.00,0.00,28.3,27.4,00.0,37.4,30.1,27.6,-002.0,0036.25,0011.86,0008.13
2022-05-12 11:36:00,,0819.3,5.00,0.00,28.3,27.4,00.0,37.4,30.1,27.4,-001.6,0036.95,0011.93,0008.13
2022-05-12 11:37:00,,0819.1,5.00,0.00,28.3,27.4,00.0,37.4,30.0,27.3,-001.3,0036.60,0011.93,0008.13
2022-05-12 11:38:00,,0819.0,5.00,0.00,28.3,27.4,00.0,37.4,30.0,27.3,-001.4,0037.11,0011.97,0008.14
2022-05-12 11:39:00,,0819.1,5.00,0.00,28.3,27.5,00.0,37.4,30.0,27.5,-001.6,0036.16,0011.94,0008.13
2022-05-12 11:40:00,,0819.1,4.99,0.00,28.3,27.5,00.0,37.4,30.0,27.6,-001.5,0034.14,0011.98,0008.14
2022-05-12 11:41:00,,0819.1,4.99,0.00,28.2,27.4,00.0,37.4,30.0,27.6,-001.5,0034.72,0011.99,0008.14
2022-05-12 11:42:00,,0819.0,5.01,0.00,28.2,27.4,00.0,37.3,30.0,27.6,-001.4,0034.15,0012.02,0008.13
2022-05-12 11:43:00,,0819.0,5.01,0.00,28.3,27.5,00.0,37.3,30.0,27.7,-001.6,0033.08,0012.00,0008.11
2022-05-12 11:44:00,,0818.9,4.99,0.00,28.3,27.5,00.0,37.3,30.0,27.8,-001.4,0033.69,0011.98,0008.12
2022-05-12 11:45:00,,0819.0,4.99,0.00,28.3,27.5,00.0,37.3,30.0,27.9,-001.5,0032.37,0011.92,0008.12
2022-05-12 11:46:00,,0819.0,5.01,0.00,28.3,27.5,00.0,37.3,30.0,27.8,-001.5,0031.62,0011.92,0008.14
2022-05-12 11:47:00,,0819.0,5.00,0.00,28.3,27.5,00.0,37.3,30.0,27.7,-001.6,0032.02,0011.85,0008.14
2022-05-12 11:48:00,,0819.0,5.00,0.00,28.3,27.5,00.0,37.3,30.0,27.6,-001.7,0031.61,0011.89,0008.14
2022-05-12 11:49:00,,0819.0,5.01,0.00,28.2,27.5,00.0,37.3,30.0,27.6,-001.6,0031.52,0011.89,0008.15
2022-05-12 11:50:00,,0818.9,5.00,0.00,28.2,27.5,00.0,37.3,30.0,27.7,-001.4,0031.94,0011.88,0008.16
2022-05-12 11:51:00,,0818.9,4.99,0.00,28.2,27.5,00.0,37.3,30.0,27.7,-001.1,0033.16,0011.83,0008.14
2022-05-12 11:52:00,,0819.0,4.99,0.00,28.3,27.5,00.0,37.3,30.0,27.6,-001.2,0032.38,0011.81,0008.13
2022-05-12 11:53:00,,0818.9,5.00,0.00,28.3,27.5,00.0,37.3,30.0,27.7,-001.5,0032.00,0011.80,0008.16
2022-05-12 11:54:00,,0818.9,5.00,0.00,28.3,27.5,00.0,37.3,30.0,27.9,-001.4,0031.91,0011.77,0008.17
2022-05-12 11:55:00,,0818.9,5.00,0.00,28.2,27.4,00.0,37.3,30.0,27.9,-001.3,0031.87,0011.85,0008.18
2022-05-12 11:56:00,,0818.9,5.00,0.00,28.2,27.4,00.0,37.3,30.0,27.9,-001.1,0032.02,0011.84,0008.16
2022-05-12 11:57:00,,0819.0,5.00,0.00,28.2,27.4,00.0,37.3,30.0,27.9,-001.2,0032.69,0011.78,0008.15
2022-05-12 11:58:00,,0819.0,5.00,0.00,28.2,27.4,00.0,37.3,30.0,27.8,-001.2,0031.62,0011.80,0008.15
2022-05-12 11:59:00,,0819.0,5.00,0.00,28.2,27.3,00.0,37.3,30.0,27.9,-001.3,0031.39,0011.83,0008.16
